Location: Coupvray
(48.8929°N, 2.7967°E)
Time: 23:37:05
(UTC+00:00)

Cosmos 1241 Rocket - Pass Details

Date: 05 November 2020
Orbit: 929 x 1018 km, 65.8° (Epoch: 28 November)

Event Time Altitude Azimuth Distance (km) Brightness Sun altitude
Rises 20:51:56 0° 319° (NW) 3,735 8.3 -43.7°
Reaches altitude 10° 20:54:54 10° 331° (NNW) 2,794 7.4 -44.1°
Enters shadow 20:56:38 17° 342° (NNW) 2,315 6.8 -44.4°
